KJFK

New York/John F Kennedy International Airport

Airport
ICAO code
KJFK
IATA Code
JFK
Summary
ICAO Region
NAM
ICAO Territory
Location

Jamaica, Queens, New York, New York

Serving
New York
Elevation
13 ft
Coordinates
40° 38' 40" N , 73° 46' 58" W
KCC
Airport BS
Bird Strike
Airport LOS
Parallel Runway Operation
Airport RE
Engineered Materials Arresting System
Metar
Observation
KJFK 282151Z 23011KT 10SM FEW070 BKN200 BKN250 08/00 A3027 RMK AO2 SLP250 T00830000 $
Station
New York, Kennedy International Airport
Date/Time
2023-01-28 21:51:00
Wind direction
230°
Wind speed
11 kts
Lowest cloud amount
few clouds
Temperature
8.3°C
Dew point
0°C
Humidity
55%
Weather condition
n/a

International airport serving the city of New York, NY, USA.

Climatology

Humid “subtropical” climate (Köppen climate classification Cfa) - characterized by hot, humid summers and cool winters. Significant amounts of precipitation occur in all seasons in most areas. Winter rainfall (and sometimes snowfall) is associated with large storms that the westerlies steer from west to east. Most summer rainfall occurs during thunderstorms.

SKYbrary Partners:

Safety knowledge contributed by: